CAPE
0 0 0 0 0 0 0 0 0 0 0 0 0 0 0 0 0 0 0 0 0 0 0 0 0 0 608 618 1625 2025 2387 2265 1801 1803 2262 2535 2642 2512 2186 1891 1933 1972 1948 1776 1801 1884 1888 1859 1816 1572 1374 1419 1449 1295 1327 1241 1022 957 991 944 703 696 747 822 848 769 789 756 706 675 689 682 735 774 818 868 908 884 874 860 885 838 864 969 1000 975
0 0 0 0 0 0 0 0 0 0 0 0 0 0 0 0 0 0 0 0 0 0 0 0 0 0 552 610 1355 1809 2159 2039 1445 1375 1841 2549 2686 2530 1940 1656 1744 1846 1911 1814 1850 1913 1877 1909 1671 1422 1380 1340 1362 1312 1264 1162 965 996 929 740 652 645 637 819 823 716 715 668 651 664 664 660 723 776 836 858 788 766 795 793 835 803 792 801 824 833
0 0 0 0 0 0 0 0 0 0 0 0 0 0 0 0 0 0 0 0 0 0 0 0 0 12 482 559 894 1210 1498 1459 1193 1145 1333 1989 2404 2324 1994 1919 1916 1930 1928 1832 1878 1951 1939 1652 1506 1441 1354 1342 1327 1279 1155 967 1012 990 837 763 678 746 743 768 746 644 670 657 668 672 719 702 727 796 799 723 752 704 778 783 732 697 650 638 643 681
0 0 0 0 0 0 0 0 0 0 0 0 0 0 0 0 0 0 0 0 0 0 0 0 0 773 738 699 674 760 1062 1047 1001 1082 1266 1769 2003 2243 2212 2134 1976 1841 1907 1856 1929 1937 1889 1774 1406 1375 1399 1272 1223 1137 996 918 929 876 856 786 754 749 741 722 702 681 680 697 692 710 787 802 803 798 674 660 740 757 769 731 663 624 610 617 616 638
0 0 0 0 0 0 0 0 0 0 0 0 0 0 0 0 0 0 0 0 0 0 0 3 138 685 865 745 765 729 830 740 857 899 1023 1477 1956 2205 2283 2051 1879 1867 1923 1914 1871 1817 1758 1593 1359 1382 1336 1214 1094 1020 904 927 910 886 881 773 794 826 827 816 806 776 769 797 801 768 808 904 850 730 627 648 692 702 690 643 555 577 516 561 562 547
0 0 0 0 0 0 0 0 0 0 0 0 0 0 0 0 0 0 0 0 0 0 0 0 0 10 713 820 835 769 863 808 738 807 759 1027 1714 2132 2090 1842 1857 2006 1938 1900 1853 1791 1705 1404 1371 1268 1182 1049 904 888 859 951 918 897 855 802 848 857 880 926 923 892 888 872 899 893 858 765 749 556 571 685 739 656 560 534 421 434 430 492 501 521
0 0 0 0 0 0 0 0 0 0 0 0 0 0 0 0 0 0 0 0 0 0 0 0 0 0 438 803 828 832 922 864 793 716 690 745 1075 1499 1628 1740 1957 1984 1866 1840 1796 1674 1496 1400 1384 1191 1074 1003 937 972 942 959 938 910 847 896 912 931 975 1009 1028 986 959 933 924 939 850 668 659 633 558 624 653 581 490 447 369 440 398 418 417 408
0 0 0 0 0 0 0 0 0 0 0 0 0 0 0 0 0 0 0 0 0 0 0 0 0 9 105 241 874 910 894 843 817 770 716 729 1012 1395 1598 1763 1857 1806 1676 1737 1667 1494 1424 1417 1301 1087 1104 1098 1012 1065 1021 965 967 965 968 995 1018 1070 1026 1095 1116 1072 984 928 835 806 780 669 655 604 522 542 572 520 480 453 451 440 426 431 402 364
0 0 0 0 0 0 0 0 0 0 0 0 0 0 0 0 0 0 0 0 0 0 0 0 60 0 0 126 503 890 834 802 818 798 820 855 1024 1290 1424 1483 1659 1579 1497 1544 1602 1454 1397 1391 1257 1160 1071 1024 1016 1116 1057 969 924 960 1034 1156 1210 1203 1192 1202 1163 1101 986 858 789 752 773 687 669 660 507 488 528 472 418 406 409 448 470 427 328 80
0 0 0 0 0 0 0 0 0 0 0 0 0 0 0 0 0 0 0 0 0 0 0 0 0 0 0 13 489 667 847 925 878 859 860 878 959 1053 1104 1230 1414 1448 1391 1472 1569 1391 1321 1317 1342 1316 1099 914 1005 1117 1065 958 889 919 1021 1128 1185 1307 1270 1226 1191 1100 898 846 830 804 697 706 565 608 539 488 530 479 377 419 411 449 396 298 82 0
0 0 0 0 0 0 0 0 0 0 0 0 0 0 0 0 0 0 0 0 0 0 0 0 0 0 0 0 300 486 726 1052 997 1024 998 935 1007 1031 1112 1175 1206 1435 1403 1328 1429 1357 1336 1352 1305 1256 1111 964 1005 1109 1098 1008 889 925 983 1098 1234 1278 1272 1225 1149 1036 904 774 828 709 726 625 600 598 512 490 526 429 369 334 329 346 354 252 0 0
0 0 0 0 0 0 0 0 0 0 0 0 0 0 0 0 0 0 0 0 0 0 0 0 0 0 0 0 0 423 788 1010 1065 1057 1002 1045 1101 1068 1165 1244 1360 1392 1417 1301 1212 1216 1277 1300 1247 1184 1115 999 1008 1079 1093 1050 912 843 1048 1232 1218 1267 1253 1211 1135 940 889 803 752 536 573 692 678 568 529 519 415 368 356 308 307 345 272 80 0 0
0 0 0 0 0 0 0 0 0 0 0 0 0 0 0 0 0 0 0 0 0 0 0 0 0 0 0 0 0 453 652 946 1106 1135 1091 1170 1160 1125 1240 1267 1479 1432 1311 1385 1285 1274 1182 1281 1269 1258 1171 1065 993 1009 1002 984 927 911 1035 1205 1230 1196 1008 1054 1004 914 796 770 800 533 722 780 735 649 590 477 388 350 340 398 441 309 84 0 0 0
0 0 0 0 0 0 0 0 0 0 0 0 0 0 0 0 0 0 0 0 0 0 0 0 0 0 0 0 0 322 691 867 1076 1163 1092 1030 1081 1190 1299 1304 1536 1442 1374 1394 1372 1314 1218 1297 1324 1296 1280 1154 1048 988 1002 966 927 942 976 1123 1192 1154 1027 977 984 884 832 713 656 660 754 808 779 724 596 498 496 489 479 426 305 103 0 0 0 0
0 0 0 0 0 0 0 0 0 0 0 0 0 0 0 0 0 0 0 0 0 0 0 0 0 0 0 0 0 132 630 981 1022 1087 1077 1044 1154 1256 1348 1487 1586 1501 1435 1434 1430 1358 1277 1372 1326 1301 1353 1177 1106 1018 1009 958 931 944 1004 1127 1197 1077 999 994 934 840 791 710 720 709 758 747 747 696 617 609 586 552 452 311 188 0 0 0 0 0
0 0 0 0 0 0 0 0 0 0 0 0 0 0 0 0 0 0 0 0 0 0 0 0 0 0 0 0 1 96 452 764 957 1014 1034 1071 1259 1388 1516 1636 1624 1559 1465 1457 1450 1394 1321 1278 1280 1294 1391 1260 1002 991 1000 1019 998 1022 1065 1092 1112 1036 963 925 888 784 693 751 765 811 750 736 715 680 692 658 560 440 354 234 136 0 0 0 0 0
0 0 0 0 0 0 0 0 0 0 0 0 0 0 0 0 0 0 0 0 0 0 0 0 0 0 0 1 492 434 582 926 1085 1120 1151 1184 1351 1487 1539 1603 1677 1618 1480 1466 1464 1425 1359 1272 1181 1170 1459 1273 1069 988 1007 998 941 1078 1204 1189 1099 1076 1019 876 816 814 752 741 755 798 785 767 739 752 759 645 504 431 341 199 21 0 0 0 0 0
0 0 0 0 0 0 0 0 0 0 0 0 0 0 0 0 0 0 0 0 0 0 0 0 0 0 0 9 566 550 766 1102 1222 1209 1214 1231 1401 1513 1532 1572 1668 1656 1478 1443 1429 1434 1381 1276 1160 1297 1496 1336 1183 1066 1010 971 1002 1142 1191 1105 1114 1062 1024 904 860 786 811 773 727 750 758 767 750 752 647 533 453 427 324 196 0 0 0 0 0 0
0 0 0 0 0 0 0 0 0 0 0 0 0 0 0 0 0 0 0 0 0 0 0 0 0 0 0 269 533 630 861 1115 1225 1295 1283 1310 1449 1518 1535 1546 1614 1608 1491 1447 1403 1376 1376 1307 1184 1454 1462 1352 1288 1208 1029 992 1046 1075 1065 1176 1204 1091 932 834 762 705 723 749 728 700 701 689 598 550 498 425 450 429 298 202 144 130 16 0 0 0
0 0 0 0 0 0 0 0 0 0 0 0 0 0 0 0 0 0 0 0 0 0 0 0 0 3 0 35 506 694 776 1056 1232 1308 1342 1334 1428 1544 1566 1542 1524 1568 1538 1508 1468 1404 1374 1328 1394 1432 1337 1326 1333 1233 1095 960 938 951 1083 1219 1196 1044 825 768 672 607 620 661 659 644 610 593 573 502 422 405 467 390 295 199 148 150 0 0 0 0
0 0 0 0 0 0 0 0 0 0 0 0 0 0 0 0 0 0 0 0 0 0 0 0 0 0 0 54 553 689 736 1039 1222 1300 1322 1341 1478 1668 1630 1568 1489 1474 1515 1463 1402 1374 1361 1345 1322 1363 1266 1186 1116 1026 933 937 957 1030 1118 1179 1024 877 733 594 583 590 626 633 608 616 588 568 481 419 377 474 475 292 201 156 164 162 4 0 0 0
0 0 0 0 0 0 0 0 0 0 0 0 0 0 0 0 0 0 0 0 0 0 0 0 0 0 0 42 559 721 808 1074 1214 1224 1307 1366 1523 1692 1698 1612 1517 1488 1491 1417 1314 1272 1317 1318 1340 1356 1260 992 963 944 925 948 1028 1114 1096 986 938 796 593 500 572 674 680 629 629 592 538 418 448 447 495 468 335 202 155 170 196 170 0 0 0 0
0 0 0 0 0 0 0 0 0 0 0 0 0 0 0 0 0 0 0 0 0 0 0 0 0 0 0 104 547 787 915 1080 1182 1214 1268 1375 1527 1711 1722 1633 1567 1522 1506 1412 1327 1253 1247 1302 1253 1302 1197 968 892 926 937 963 1075 1027 899 892 891 775 547 520 608 642 667 636 560 490 448 475 486 506 444 354 242 167 160 201 217 72 0 0 0 0
0 0 0 0 0 0 0 0 0 0 0 0 0 0 0 0 0 0 0 0 0 0 0 0 0 34 71 118 532 793 1072 1222 1262 1284 1313 1390 1503 1657 1682 1654 1579 1560 1526 1443 1357 1278 1245 1296 1225 1166 1154 992 850 931 924 978 1067 894 849 862 804 628 462 484 531 509 480 461 495 442 413 434 415 368 356 286 195 150 162 202 181 0 0 0 0 0
0 0 0 0 0 0 0 0 0 0 0 0 0 0 0 0 0 0 0 0 0 0 0 0 0 0 100 90 438 705 952 1140 1273 1328 1324 1370 1508 1662 1711 1672 1560 1550 1536 1462 1391 1317 1277 1256 1154 1000 1060 1027 913 934 928 995 1077 897 849 789 654 447 395 411 363 377 402 391 376 365 338 287 254 231 208 159 75 42 91 140 52 0 0 0 0 0
0 0 0 0 0 0 0 0 0 0 0 0 0 0 0 0 0 0 0 0 0 0 0 0 0 0 228 88 321 697 908 1054 1251 1375 1333 1404 1596 1787 1768 1687 1530 1520 1529 1457 1376 1308 1304 1268 1171 1050 1047 1022 927 877 882 974 1074 970 851 669 443 370 347 378 420 410 422 428 389 310 183 46 0 0 0 0 0 0 0 0 0 0 0 0 0 7
1 0 0 0 0 0 0 0 0 0 0 0 0 0 0 0 0 0 0 0 0 0 0 0 35 172 123 155 304 613 818 1010 1211 1325 1349 1434 1660 1791 1781 1705 1575 1490 1466 1428 1372 1326 1288 1238 1146 1120 976 870 808 821 832 966 978 892 726 457 299 348 429 392 490 523 496 405 89 0 0 0 0 0 0 0 0 0 0 0 0 0 17 59 56 19
0 0 0 0 0 0 0 0 0 0 0 0 0 0 0 0 0 0 0 0 0 0 0 0 190 133 123 134 380 580 763 992 1187 1318 1380 1507 1625 1740 1759 1704 1547 1446 1465 1440 1400 1383 1314 1177 1039 1057 1021 807 782 723 791 911 914 792 577 307 229 349 426 537 583 542 464 253 0 0 0 0 0 0 0 0 0 0 0 0 0 39 0 0 0 0
0 0 0 0 0 0 0 0 0 0 0 0 0 0 0 0 0 0 0 0 0 0 0 36 205 118 143 134 321 589 761 990 1184 1337 1443 1535 1639 1645 1670 1677 1552 1458 1451 1430 1391 1371 1274 1083 985 1046 1032 910 896 777 792 849 852 706 404 340 338 385 437 543 577 573 377 0 0 0 0 0 0 0 0 0 0 0 0 0 0 0 0 0 0 0
0 0 0 0 0 0 0 0 0 0 0 0 0 0 0 0 0 0 0 0 0 0 0 103 180 160 164 144 252 532 728 919 1127 1284 1367 1458 1545 1615 1657 1585 1492 1449 1460 1453 1408 1360 1252 982 887 1048 1075 964 961 834 781 798 815 613 366 319 395 481 512 595 654 450 0 0 0 0 0 0 0 0 0 0 0 0 0 0 0 0 0 0 0 0
0 0 0 0 0 0 0 0 0 0 0 0 0 0 0 0 0 0 0 0 0 0 0 167 228 257 662 866 480 592 718 862 1051 1196 1381 1477 1539 1599 1630 1600 1519 1482 1475 1496 1466 1367 1197 959 857 946 1018 951 894 841 837 774 757 621 471 436 371 284 541 656 588 0 0 0 0 0 0 0 0 0 0 0 0 0 0 0 0 0 0 0 0 0
1 1 0 0 0 0 0 0 0 0 0 0 0 0 0 0 0 0 0 0 0 97 141 220 244 238 835 982 713 754 772 895 1050 1186 1270 1379 1517 1605 1620 1649 1620 1537 1504 1509 1458 1371 1210 1083 933 906 951 816 621 622 809 822 696 588 558 561 454 124 584 656 447 201 0 0 0 0 0 0 0 0 0 20 41 31 32 0 0 0 0 0 38 0
4 0 0 0 0 0 0 0 0 0 0 0 0 0 0 0 0 0 0 0 0 147 215 174 244 215 957 1036 778 825 838 973 1092 1174 1281 1337 1486 1564 1586 1612 1624 1564 1514 1487 1431 1425 1317 1103 941 857 874 834 696 616 667 782 732 670 652 632 559 460 623 584 352 164 0 0 0 0 0 0 0 0 68 152 147 133 113 0 0 0 26 66 62 24
3 0 0 0 0 0 0 0 0 0 0 0 0 0 0 0 0 0 0 0 12 0 25 0 97 821 1296 1077 805 884 865 990 1108 1195 1242 1315 1382 1463 1526 1556 1568 1555 1469 1402 1348 1352 1271 1077 940 904 922 875 796 691 596 599 734 817 774 705 619 513 593 174 119 305 18 0 0 0 0 0 0 5 109 134 124 107 0 0 0 0 20 46 25 1
10 0 0 0 0 0 0 0 0 0 0 37 0 0 0 0 0 0 0 0 118 0 28 224 766 1047 1423 1018 845 868 883 932 1069 1106 1191 1326 1377 1456 1496 1519 1551 1543 1496 1439 1392 1340 1258 1122 1004 970 923 882 852 765 682 644 708 728 717 695 705 600 457 168 130 329 208 0 0 0 0 0 0 20 50 33 0 0 0 0 0 0 14 15 2 0
13 2 0 0 0 0 0 0 0 0 4 0 0 0 0 0 0 0 0 0 35 0 97 248 885 1213 1219 1028 876 899 901 950 985 1061 1165 1322 1413 1447 1463 1511 1581 1565 1531 1452 1405 1342 1239 1159 1052 918 884 878 883 882 823 777 633 664 724 583 480 489 481 163 144 123 91 52 26 15 7 32 15 0 29 59 27 0 0 0 0 1 3 1 0 0
2 0 0 0 0 0 0 0 0 1 1 0 0 2 0 0 0 0 0 0 15 0 0 170 802 1305 1315 1166 1090 1022 1079 1156 1186 1233 1259 1352 1428 1473 1478 1503 1513 1512 1468 1413 1318 1260 1188 1103 1014 931 917 913 928 936 910 846 768 647 630 627 532 399 408 430 126 142 137 115 83 54 48 107 36 8 32 61 60 68 36 0 0 0 0 0 0 0
0 0 0 0 0 0 0 0 0 0 5 0 0 0 0 0 0 0 0 0 0 55 0 188 744 1368 1374 1244 1155 1188 1139 1059 1077 1259 1349 1449 1446 1472 1458 1419 1416 1402 1371 1335 1272 1216 1146 1075 1010 959 950 941 924 950 890 794 876 801 646 548 504 460 425 416 369 208 138 94 109 110 82 156 81 7 36 54 53 18 0 0 0 0 0 0 0 0
0 0 0 0 0 0 0 0 0 0 0 0 0 0 0 0 0 0 0 0 0 162 0 179 845 1250 1210 1065 1182 1233 1044 889 869 988 1297 1507 1471 1451 1426 1398 1355 1327 1318 1320 1288 1208 1143 1081 1043 1009 974 914 667 908 909 800 763 771 740 602 479 400 420 412 337 196 140 158 167 142 117 60 55 34 24 42 3 0 0 0 0 2 0 0 0 0
1 0 0 0 0 0 0 0 0 0 34 8 0 0 0 0 0 0 0 50 12 250 39 333 843 1144 1176 1057 1103 1113 872 625 714 875 1183 1413 1478 1416 1384 1362 1306 1277 1286 1284 1233 1153 1090 1096 1066 996 972 977 941 820 938 940 815 723 659 571 492 411 366 372 146 88 143 114 112 90 63 3 7 21 6 0 0 0 0 0 0 0 0 0 0 0
0 1 0 1 0 0 0 0 0 0 0 0 0 0 0 0 0 0 0 187 190 268 224 212 799 960 1129 1098 1044 1025 918 641 572 860 992 1336 1394 1390 1374 1324 1306 1239 1227 1204 1174 1138 1156 1144 1088 1032 1002 995 1000 660 740 694 746 615 520 460 448 469 280 241 124 173 154 74 63 88 53 12 9 9 0 0 0 0 0 0 0 0 0 0 0 0
1 3 6 7 4 0 0 0 0 61 47 170 0 0 0 0 0 0 190 146 292 317 184 122 658 860 984 1029 1000 964 1016 701 523 551 1017 1257 1430 1425 1365 1334 1301 1260 1225 1175 1138 1106 1109 1111 1140 1120 1069 1050 960 915 718 713 778 618 445 385 478 350 283 134 130 124 107 65 82 48 31 0 0 0 0 0 0 0 0 0 0 0 0 0 0 0
17 18 18 10 8 1 0 0 0 29 0 337 0 0 37 0 0 186 256 283 336 300 365 149 487 827 963 1009 937 978 880 903 619 510 976 1224 1370 1441 1419 1362 1330 1263 1180 1174 1144 1121 1115 1122 1158 1170 1073 934 846 908 891 594 689 579 368 315 344 215 106 149 77 69 77 131 26 6 22 4 0 0 0 0 0 0 0 0 0 0 0 0 0 0
6 4 6 2 0 8 2 1 39 46 305 174 0 29 180 200 305 304 297 307 248 368 348 326 413 734 897 1009 1007 1043 980 1010 839 542 917 1203 1377 1429 1412 1391 1362 1353 1314 1246 1195 1167 1150 1232 1264 1190 1038 859 841 869 910 287 467 541 407 362 372 425 182 121 81 78 143 54 7 27 24 6 0 0 0 0 0 0 0 0 0 0 0 0 0 0
0 3 3 9 1 4 12 87 440 492 462 398 383 388 372 339 334 295 251 289 378 370 428 413 411 637 870 984 1103 1182 1114 1037 950 694 935 1152 1328 1396 1412 1419 1421 1387 1392 1308 1244 1248 1210 1216 1230 1134 1011 894 777 681 673 639 607 512 424 327 434 343 310 66 88 47 39 10 1 1 0 0 0 0 0 0 0 0 0 0 0 0 0 0 0 0
2 4 3 18 16 245 227 334 494 536 544 478 421 382 371 345 286 302 295 368 379 418 427 480 370 458 744 968 1064 1197 1270 1110 868 738 888 1096 1234 1371 1390 1349 1345 1307 1292 1294 1222 1129 1127 1102 1074 1052 972 864 703 623 647 703 542 400 310 270 247 237 248 328 276 256 208 4 1 0 0 2 10 0 0 0 0 0 0 0 0 0 0 0 0 0
0 0 0 53 4 77 355 323 370 338 282 500 459 415 390 329 347 316 315 280 363 434 518 398 418 426 411 674 994 1140 1211 1163 997 752 854 1010 1164 1230 1277 1314 1240 1221 1201 1194 1151 1003 874 880 894 839 814 770 663 590 536 583 415 334 244 132 195 353 240 173 171 63 13 26 52 34 25 26 22 9 0 0 0 0 0 0 0 0 0 0 0 0
8 0 0 0 0 0 139 180 224 214 199 220 229 276 204 186 244 311 276 270 293 448 410 472 483 508 456 348 492 886 1101 1150 1108 951 785 982 1049 1139 1165 1206 1166 1127 1121 1096 1022 971 786 723 784 771 691 650 577 518 478 426 551 434 166 168 155 233 98 75 208 96 8 38 60 38 28 17 5 0 0 0 0 0 0 0 0 0 0 0 0 0
45 0 59 0 24 10 99 124 99 112 119 242 347 340 289 245 190 176 290 254 300 288 313 467 605 568 479 508 464 382 650 961 1123 1153 1018 881 999 1062 1107 1129 1125 1084 979 957 938 817 738 691 662 697 648 574 467 420 398 347 373 306 273 259 172 201 59 196 180 57 6 63 56 44 30 11 0 0 0 0 0 0 0 0 0 0 0 0 0 0
0 110 1 0 0 1 37 72 0 1 0 5 102 310 357 308 252 100 132 310 316 260 175 281 445 443 484 553 517 520 423 520 785 971 1061 985 866 968 1016 1043 1028 1004 899 839 789 732 658 577 579 568 565 547 434 331 270 274 348 235 104 137 204 169 131 127 73 17 53 95 77 57 25 5 2 0 0 0 0 0 0 0 0 0 0 0 0 0
12 7 0 0 0 0 0 123 26 118 0 0 182 266 286 307 265 259 250 313 300 269 47 121 283 462 522 444 456 516 528 478 514 677 818 817 783 845 873 905 900 884 825 686 635 638 619 597 512 489 490 419 338 236 178 188 239 146 186 115 101 64 98 96 27 28 103 101 93 57 12 0 1 0 0 0 3 0 0 0 0 0 0 0 0 0
Wind_Speed
nan nan nan nan nan nan nan nan nan nan nan nan nan nan nan nan nan nan nan nan nan nan nan nan nan nan 38 33 30 32 34 29 25 25 26 27 29 29 27 26 26 26 25 22 21 20 18 17 18 19 20 21 21 22 24 23 21 21 19 19 18 19 17 17 22 24 24 24 23 23 24 24 23 26 26 25 22 22 22 21 21 23 24 23 23 23
nan nan nan nan nan nan nan nan nan nan nan nan nan nan nan nan nan nan nan nan nan nan nan nan nan nan 36 33 33 36 32 22 21 23 24 26 27 27 26 24 24 25 24 22 19 17 17 17 18 19 20 20 22 20 22 22 22 22 21 19 19 18 16 16 21 24 24 23 22 23 23 24 24 25 25 24 22 22 22 22 23 23 23 23 23 23
nan nan nan nan nan nan nan nan nan nan nan nan nan nan nan nan nan nan nan nan nan nan nan nan nan nan 42 38 37 32 27 23 19 22 24 27 27 26 24 22 23 23 22 19 17 16 17 18 18 19 20 19 19 20 21 22 23 22 21 20 19 16 16 18 21 23 23 23 24 24 24 24 26 26 24 23 23 23 25 24 24 23 23 24 23 21
nan nan nan nan nan nan nan nan nan nan nan nan nan nan nan nan nan nan nan nan nan nan nan nan nan 42 42 41 37 34 28 29 26 27 29 28 27 25 23 23 22 21 19 17 17 17 17 17 17 18 20 20 20 20 21 21 21 20 21 20 19 18 17 18 18 21 22 24 25 27 26 25 25 26 24 26 25 25 26 25 23 23 23 24 22 20
nan nan nan nan nan nan nan nan nan nan nan nan nan nan nan nan nan nan nan nan nan nan nan nan 44 41 40 38 36 37 35 34 31 33 31 27 26 28 28 23 17 18 17 16 16 16 16 16 16 18 19 18 18 19 20 20 20 20 21 19 17 18 18 18 18 19 20 22 24 25 26 26 29 27 25 27 24 24 26 25 24 23 22 22 21 18
nan nan nan nan nan nan nan nan nan nan nan nan nan nan nan nan nan nan nan nan nan nan nan nan nan nan 39 37 33 36 37 33 32 32 28 26 26 25 21 18 16 13 12 14 16 16 16 15 17 17 18 16 16 18 19 19 20 22 22 21 19 19 19 19 18 17 18 20 23 24 25 25 27 27 26 26 24 23 25 25 23 23 22 21 19 17
nan nan nan nan nan nan nan nan nan nan nan nan nan nan nan nan nan nan nan nan nan nan nan nan nan nan 39 34 32 33 33 32 33 29 26 24 22 20 18 18 17 14 12 11 13 14 16 16 18 19 17 15 16 16 18 19 21 22 22 22 20 19 19 18 17 15 18 20 21 24 25 24 25 27 25 25 23 23 22 22 23 21 20 19 19 18
nan nan nan nan nan nan nan nan nan nan nan nan nan nan nan nan nan nan nan nan nan nan nan nan nan nan 37 31 32 32 32 32 31 27 24 21 19 17 17 18 16 13 12 13 14 14 15 16 18 19 17 15 16 17 18 19 19 21 23 23 21 18 17 16 15 14 16 20 21 23 22 23 23 25 26 24 23 22 21 22 21 20 20 19 18 19
nan nan nan nan nan nan nan nan nan nan nan nan nan nan nan nan nan nan nan nan nan nan nan nan nan nan nan 36 36 34 33 32 27 24 20 17 15 14 16 17 14 12 12 14 14 13 14 16 17 16 15 15 16 15 18 18 18 20 22 22 18 17 16 15 14 15 19 24 23 20 20 20 20 23 24 22 21 21 21 23 20 20 19 18 18 nan
nan nan nan nan nan nan nan nan nan nan nan nan nan nan nan nan nan nan nan nan nan nan nan nan nan nan nan nan 36 39 34 28 23 17 14 12 12 13 14 14 13 12 13 12 12 13 14 14 14 14 15 16 14 14 17 17 18 19 20 19 19 18 16 15 15 17 21 23 22 21 19 21 22 22 23 21 20 20 21 22 19 17 16 16 nan nan
nan nan nan nan nan nan nan nan nan nan nan nan nan nan nan nan nan nan nan nan nan nan nan nan nan nan nan nan 33 37 28 20 18 18 12 9 9 10 12 12 11 11 12 11 12 13 13 13 13 14 15 15 16 15 16 15 16 16 16 18 19 17 15 15 15 16 20 21 21 19 20 24 26 24 23 21 20 20 19 18 17 16 15 16 nan nan
nan nan nan nan nan nan nan nan nan nan nan nan nan nan nan nan nan nan nan nan nan nan nan nan nan nan nan nan nan 27 17 10 15 8 7 9 10 9 8 10 9 10 11 11 12 13 14 14 13 12 14 15 16 15 14 12 13 13 13 15 17 15 14 14 14 16 18 19 19 18 21 24 26 24 21 21 20 17 16 15 15 14 16 nan nan nan
nan nan nan nan nan nan nan nan nan nan nan nan nan nan nan nan nan nan nan nan nan nan nan nan nan nan nan nan nan 18 15 17 12 4 7 9 9 9 6 7 9 11 12 11 11 12 13 13 13 13 13 13 13 12 12 12 11 10 11 12 14 13 13 11 13 15 17 17 16 17 21 24 24 22 21 20 18 14 14 14 14 14 nan nan nan nan
nan nan nan nan nan nan nan nan nan nan nan nan nan nan nan nan nan nan nan nan nan nan nan nan nan nan nan nan nan 15 5 7 7 1 2 8 11 10 8 8 9 11 11 11 11 12 13 13 12 12 11 9 8 10 11 10 9 9 10 11 12 12 12 13 14 14 15 15 15 17 19 21 20 20 19 17 14 13 14 14 14 14 nan nan nan nan
nan nan nan nan nan nan nan nan nan nan nan nan nan nan nan nan nan nan nan nan nan nan nan nan nan nan nan nan nan 11 10 11 17 16 17 19 20 18 15 11 9 8 10 10 11 12 13 13 12 10 7 6 7 9 9 8 8 9 10 10 12 13 14 15 15 13 14 15 16 16 17 18 17 17 17 15 13 13 13 13 14 nan nan nan nan nan
nan nan nan nan nan nan nan nan nan nan nan nan nan nan nan nan nan nan nan nan nan nan nan nan nan nan nan nan nan nan 29 26 19 19 22 23 21 19 17 14 10 6 9 10 11 14 14 14 11 8 6 6 7 8 7 8 8 8 9 9 12 15 16 17 16 14 14 14 14 15 16 15 15 15 16 15 15 14 13 12 12 nan nan nan nan nan
nan nan nan nan nan nan nan nan nan nan nan nan nan nan nan nan nan nan nan nan nan nan nan nan nan nan nan nan 40 32 32 27 22 18 21 22 19 19 17 16 14 9 9 11 12 13 15 13 10 8 7 8 9 9 7 8 9 10 9 10 12 16 17 17 16 15 13 12 13 14 15 13 13 13 14 14 14 14 13 12 nan nan nan nan nan nan
nan nan nan nan nan nan nan nan nan nan nan nan nan nan nan nan nan nan nan nan nan nan nan nan nan nan nan nan 37 35 33 25 20 17 18 19 19 17 15 16 17 15 13 12 12 13 13 12 11 9 9 9 9 10 10 10 10 11 10 11 14 16 18 16 16 15 13 12 13 16 17 15 14 13 14 14 14 13 12 11 nan nan nan nan nan nan
nan nan nan nan nan nan nan nan nan nan nan nan nan nan nan nan nan nan nan nan nan nan nan nan nan nan nan 33 33 30 27 21 19 19 18 17 16 12 13 14 18 21 19 14 12 12 12 12 11 10 11 11 11 11 12 12 12 12 11 12 14 16 17 16 15 15 14 14 15 16 17 17 14 13 14 14 13 11 10 11 13 16 nan nan nan nan
nan nan nan nan nan nan nan nan nan nan nan nan nan nan nan nan nan nan nan nan nan nan nan nan nan nan nan nan 21 20 20 18 17 16 13 15 13 8 8 11 14 19 19 16 12 11 11 11 13 13 12 12 12 13 13 13 13 13 12 14 16 18 18 17 16 15 15 15 16 17 17 16 15 15 15 12 11 10 11 13 17 18 nan nan nan nan
nan nan nan nan nan nan nan nan nan nan nan nan nan nan nan nan nan nan nan nan nan nan nan nan nan nan nan nan 17 13 15 18 16 13 13 12 10 6 6 10 14 18 20 17 13 10 11 13 14 15 14 14 15 15 15 14 14 14 14 16 16 20 18 17 15 15 14 15 16 17 17 16 16 16 14 12 11 13 15 17 18 19 nan nan nan nan
nan nan nan nan nan nan nan nan nan nan nan nan nan nan nan nan nan nan nan nan nan nan nan nan nan nan nan nan 12 13 14 15 11 13 11 12 11 7 8 12 16 19 20 18 14 11 12 15 16 17 16 16 17 16 16 15 15 15 15 16 16 18 18 17 16 15 15 16 17 19 18 18 17 16 13 13 13 16 17 18 19 19 nan nan nan nan
nan nan nan nan nan nan nan nan nan nan nan nan nan nan nan nan nan nan nan nan nan nan nan nan nan nan nan 23 16 16 15 8 8 12 12 12 12 9 9 12 13 18 19 18 15 14 14 16 18 18 17 16 17 17 18 16 15 16 16 16 15 19 18 18 18 16 16 16 18 19 20 20 18 16 15 15 15 18 19 19 19 nan nan nan nan nan
nan nan nan nan nan nan nan nan nan nan nan nan nan nan nan nan nan nan nan nan nan nan nan nan nan nan nan 28 25 27 29 28 25 20 15 14 13 11 9 9 11 13 17 18 17 17 18 19 20 19 18 17 18 18 18 16 16 17 17 15 16 20 20 20 20 19 18 18 19 19 20 20 19 18 16 17 17 20 19 20 20 nan nan nan nan nan
nan nan nan nan nan nan nan nan nan nan nan nan nan nan nan nan nan nan nan nan nan nan nan nan nan nan nan nan 31 29 26 24 23 24 22 19 17 15 11 9 11 12 14 16 17 18 18 18 18 16 16 16 17 19 19 18 17 18 17 16 18 20 20 21 21 22 21 20 21 19 19 19 19 18 18 18 nan nan nan 21 nan nan nan nan nan nan
nan nan nan nan nan nan nan nan nan nan nan nan nan nan nan nan nan nan nan nan nan nan nan nan nan nan 36 nan 33 30 29 29 27 25 22 19 17 16 14 16 19 18 15 17 19 19 18 16 16 16 17 17 18 19 19 18 18 19 19 19 19 20 21 22 22 23 23 22 22 20 19 nan nan nan nan nan nan nan nan nan nan nan nan nan nan nan
nan nan nan nan nan nan nan nan nan nan nan nan nan nan nan nan nan nan nan nan nan nan nan nan nan 38 39 37 33 31 31 27 26 26 24 21 19 21 23 26 28 25 19 18 18 18 20 18 15 15 17 18 18 19 19 19 20 21 21 21 20 20 22 23 24 24 24 23 nan nan nan nan nan nan nan nan nan nan nan nan nan nan nan nan nan nan
nan nan nan nan nan nan nan nan nan nan nan nan nan nan nan nan nan nan nan nan nan nan nan nan 36 42 32 34 32 31 32 33 29 27 28 28 28 29 30 34 37 32 26 23 21 20 20 19 18 16 18 19 19 20 20 20 21 22 22 23 21 22 23 23 25 25 25 24 nan nan nan nan nan nan nan nan nan nan nan nan nan nan nan nan nan nan
nan nan nan nan nan nan nan nan nan nan nan nan nan nan nan nan nan nan nan nan nan nan nan nan 29 35 33 30 29 29 32 30 29 27 28 33 37 37 35 32 31 30 27 25 24 23 24 23 21 19 19 21 21 20 21 23 23 23 24 23 23 23 24 25 27 26 26 nan nan nan nan nan nan nan nan nan nan nan nan nan nan nan nan nan nan nan
nan nan nan nan nan nan nan nan nan nan nan nan nan nan nan nan nan nan nan nan nan nan nan 25 25 25 30 33 36 38 39 36 34 37 40 39 35 33 29 23 20 21 22 21 22 23 24 25 25 22 22 23 23 23 24 25 24 24 25 24 24 25 24 26 27 27 nan nan nan nan nan nan nan nan nan nan nan nan nan nan nan nan nan nan nan nan
nan nan nan nan nan nan nan nan nan nan nan nan nan nan nan nan nan nan nan nan nan nan nan 37 32 26 29 30 32 32 34 34 31 26 26 27 26 24 23 17 12 12 15 17 19 21 24 26 27 26 24 25 25 25 26 27 27 26 26 26 26 26 25 27 28 nan nan nan nan nan nan nan nan nan nan nan nan nan nan nan nan nan nan nan nan nan
nan nan nan nan nan nan nan nan nan nan nan nan nan nan nan nan nan nan nan nan nan nan 41 42 37 28 28 30 32 29 26 25 21 21 23 21 18 20 20 19 16 16 19 19 17 18 22 24 26 26 26 28 28 28 29 29 29 28 27 27 28 27 27 28 29 30 nan nan nan nan nan nan nan nan nan nan nan nan nan nan nan nan nan nan nan nan
nan nan nan nan nan nan nan nan nan nan nan nan nan nan nan nan nan nan nan nan nan 40 44 39 27 29 31 30 31 28 25 21 19 16 17 16 14 16 19 21 22 23 22 20 17 14 15 19 22 25 28 30 29 29 29 31 31 30 29 29 28 29 29 30 31 31 nan nan nan nan nan nan nan nan nan 28 28 28 28 nan nan nan nan nan nan nan
nan nan nan nan nan nan nan nan nan nan nan nan nan nan nan nan nan nan nan nan nan nan nan nan nan 33 34 30 28 26 23 16 12 11 13 16 15 15 17 18 17 16 17 17 16 16 18 21 24 22 24 27 29 30 32 31 33 32 31 31 30 30 30 32 31 32 nan nan nan nan nan nan nan nan 30 29 29 29 nan nan nan nan nan nan nan nan
nan nan nan nan nan nan nan nan nan nan nan nan nan nan nan nan nan nan nan nan 48 nan nan 46 40 33 27 23 21 20 22 28 32 27 24 18 15 15 15 14 11 10 12 15 17 18 18 20 24 24 23 24 28 31 33 32 33 35 34 32 32 31 32 32 33 33 34 nan nan nan nan nan nan nan nan nan nan nan nan nan nan nan nan nan nan nan
nan nan nan nan nan nan nan nan nan nan nan nan nan nan nan nan nan nan nan nan nan nan nan 38 33 31 31 34 36 34 31 29 31 31 27 22 17 16 16 12 11 10 11 12 16 17 19 20 21 22 23 28 31 30 30 32 34 35 34 33 33 33 33 33 33 34 nan nan nan nan nan nan nan nan nan nan nan nan nan nan nan nan nan nan nan nan
nan nan nan nan nan nan nan nan nan nan nan nan nan nan nan nan nan nan nan nan nan nan nan 39 41 42 42 41 41 40 38 35 33 29 26 23 20 17 15 16 17 15 16 19 22 22 23 24 24 23 25 27 29 30 29 31 33 34 35 34 34 34 33 33 33 33 35 36 nan nan nan 37 nan nan nan nan nan nan nan nan nan nan nan nan nan nan
nan nan nan nan nan nan nan nan nan nan nan nan nan nan nan nan nan nan nan nan nan nan nan 36 37 41 44 43 42 41 41 40 32 25 23 23 22 22 24 25 24 24 25 27 27 26 26 27 28 27 26 26 26 27 30 33 34 34 34 34 34 35 33 33 33 34 37 nan 36 38 nan 38 nan nan nan nan nan nan nan nan nan nan nan nan nan nan
nan nan nan nan nan nan nan nan nan nan nan nan nan nan nan nan nan nan nan nan nan 32 nan 32 35 36 38 40 39 39 40 35 25 22 25 26 25 24 24 24 24 24 23 21 21 21 22 24 26 27 28 28 28 28 31 33 34 34 33 33 34 34 34 33 34 35 36 36 37 38 40 nan nan nan nan nan nan nan nan nan nan nan nan nan nan nan
nan nan nan nan nan nan nan nan nan nan nan nan nan nan nan nan nan nan nan nan nan 35 nan 32 31 33 35 36 38 36 36 30 23 19 26 27 28 26 23 21 22 22 19 19 19 19 20 22 24 23 26 27 26 28 31 33 32 32 32 32 33 34 33 33 34 nan 37 37 35 nan nan nan nan nan nan nan nan nan nan nan nan nan nan nan nan nan
nan nan nan nan nan nan nan nan nan nan nan nan nan nan nan nan nan nan nan 35 34 35 36 33 33 35 35 36 34 35 24 29 28 33 33 31 30 26 22 22 22 21 22 22 23 25 24 23 23 23 24 26 29 29 30 31 32 30 30 31 31 31 33 35 37 38 38 nan nan nan nan nan nan nan nan nan nan nan nan nan nan nan nan nan nan nan
nan nan nan nan nan nan nan nan nan nan nan 23 nan nan nan nan nan nan 33 34 36 36 38 35 36 35 34 32 30 29 33 34 33 35 35 29 26 28 30 30 31 29 28 30 31 30 30 29 28 27 26 27 29 29 29 32 32 31 30 29 28 31 35 36 38 38 38 nan nan nan nan nan nan nan nan nan nan nan nan nan nan nan nan nan nan nan
nan nan nan nan nan nan nan nan nan nan nan 21 nan nan nan nan nan 25 28 31 29 33 36 37 36 35 36 33 33 39 38 38 38 36 35 36 34 30 30 32 33 34 34 34 31 29 31 30 28 27 27 28 27 28 28 30 32 31 30 28 30 33 34 35 nan nan nan 35 nan nan nan nan nan nan nan nan nan nan nan nan nan nan nan nan nan nan
nan nan nan nan nan nan nan nan nan nan 22 21 nan nan 21 20 21 20 25 28 28 28 31 33 32 33 33 34 35 37 42 43 44 43 41 39 37 35 33 33 35 36 36 35 35 32 30 30 28 28 27 27 26 26 26 27 29 29 29 29 32 34 35 35 nan nan 36 nan nan nan nan nan nan nan nan nan nan nan nan nan nan nan nan nan nan nan
nan nan nan nan nan nan nan nan 26 25 23 24 25 24 23 23 23 22 27 26 28 30 28 29 27 28 28 30 33 37 40 41 42 42 41 38 40 39 37 35 35 37 38 39 37 35 32 31 29 29 28 26 26 25 25 25 27 28 29 30 34 34 34 nan nan nan nan nan nan nan nan nan nan nan nan nan nan nan nan nan nan nan nan nan nan nan
nan nan nan nan nan 37 35 33 31 31 30 30 29 28 27 28 29 29 28 30 28 27 28 29 29 26 26 27 29 30 31 36 38 35 38 39 39 39 39 39 38 38 37 36 37 36 36 37 34 31 29 27 25 25 25 26 28 29 29 32 32 33 34 34 34 33 34 nan nan nan nan nan nan nan nan nan nan nan nan nan nan nan nan nan nan nan
nan nan nan nan nan nan 38 37 37 34 33 33 32 31 31 31 30 29 30 28 27 27 29 28 29 28 25 25 22 22 26 31 31 31 34 35 33 32 32 34 33 33 33 32 34 38 38 38 35 31 30 28 27 27 28 29 28 30 33 33 32 33 33 32 32 nan nan nan nan nan nan nan nan nan nan nan nan nan nan nan nan nan nan nan nan nan
nan nan nan nan nan nan 38 36 32 31 30 29 30 32 35 33 33 30 29 27 26 27 27 28 29 30 28 24 20 21 26 28 28 27 27 25 25 25 27 29 30 30 30 33 34 34 36 35 34 33 31 30 30 30 30 30 31 31 32 32 31 32 nan nan 30 nan nan nan nan nan nan nan nan nan nan nan nan nan nan nan nan nan nan nan nan nan
nan nan nan nan nan nan nan 30 nan 30 31 29 29 28 27 27 28 30 31 30 27 27 27 29 30 28 27 23 23 25 27 23 22 22 22 22 23 23 24 27 28 30 33 33 32 32 33 34 35 34 33 33 33 32 31 32 33 32 32 31 31 31 nan 28 29 nan nan nan nan nan nan nan nan nan nan nan nan nan nan nan nan nan nan nan nan nan
nan 24 nan nan nan nan nan nan nan nan nan nan 26 26 27 27 27 29 30 31 29 27 25 26 28 29 29 27 25 23 21 22 22 21 19 20 20 23 28 30 32 33 34 35 35 34 34 33 35 36 35 35 33 32 31 32 33 32 32 32 32 32 30 28 nan nan nan nan nan nan nan nan nan nan nan nan nan nan nan nan nan nan nan nan nan nan
nan nan nan nan nan nan nan 19 nan 24 nan nan 22 25 25 24 24 28 26 25 25 24 nan 25 25 27 28 28 26 24 22 22 21 23 23 25 26 28 31 32 33 34 35 35 35 33 33 33 34 35 36 35 34 32 31 31 31 32 32 32 33 nan nan nan nan nan 28 26 nan nan nan nan nan nan nan nan nan nan nan nan nan nan nan nan nan nan
Wind_Direction
nan nan nan nan nan nan nan nan nan nan nan nan nan nan nan nan nan nan nan nan nan nan nan nan nan nan 242 250 255 251 249 243 252 262 262 266 268 270 271 272 276 282 284 284 292 297 295 293 286 286 287 288 282 282 282 284 279 276 278 275 273 263 269 279 271 260 262 257 245 240 244 246 242 247 247 247 248 252 253 257 257 258 258 260 262 266
nan nan nan nan nan nan nan nan nan nan nan nan nan nan nan nan nan nan nan nan nan nan nan nan nan nan 242 243 247 245 252 261 268 266 265 266 264 263 270 273 276 275 270 284 289 296 296 289 292 287 289 293 296 287 284 284 277 274 271 273 267 259 262 268 264 258 255 249 246 248 247 251 249 250 252 252 251 253 254 253 254 254 257 258 262 268
nan nan nan nan nan nan nan nan nan nan nan nan nan nan nan nan nan nan nan nan nan nan nan nan nan nan 230 237 239 246 249 237 249 263 272 269 264 265 267 273 277 280 287 288 293 297 297 297 298 296 294 296 294 289 282 273 274 276 275 270 266 261 258 256 256 254 251 242 243 249 253 256 254 247 250 255 255 256 257 252 250 250 253 258 261 263
nan nan nan nan nan nan nan nan nan nan nan nan nan nan nan nan nan nan nan nan nan nan nan nan nan 224 227 231 236 234 234 233 235 234 237 242 262 272 277 280 288 292 287 298 301 304 304 300 301 302 301 297 288 284 278 277 281 279 275 271 270 266 255 249 241 245 246 250 248 247 254 252 253 258 254 255 254 255 256 252 249 246 251 255 261 260
nan nan nan nan nan nan nan nan nan nan nan nan nan nan nan nan nan nan nan nan nan nan nan nan 223 220 225 231 231 227 229 238 234 238 245 249 246 244 248 253 268 288 291 292 294 294 300 306 310 313 306 296 293 285 283 284 286 279 276 272 267 261 254 242 241 249 256 258 254 255 256 260 259 255 258 259 254 254 255 255 249 247 246 251 256 255
nan nan nan nan nan nan nan nan nan nan nan nan nan nan nan nan nan nan nan nan nan nan nan nan nan nan 223 221 226 225 227 232 232 242 254 256 256 259 266 272 267 259 280 296 299 308 305 301 300 305 305 300 291 287 285 280 277 275 270 266 261 254 251 250 250 257 265 271 273 269 269 271 269 268 265 267 268 258 254 253 253 248 243 246 249 248
nan nan nan nan nan nan nan nan nan nan nan nan nan nan nan nan nan nan nan nan nan nan nan nan nan nan 220 220 222 221 226 230 233 244 254 259 262 267 269 269 277 282 285 274 270 274 290 287 296 303 306 303 298 291 287 280 277 273 268 265 261 255 249 249 254 260 267 270 272 274 272 269 270 268 258 257 255 256 252 252 251 247 241 241 248 246
nan nan nan nan nan nan nan nan nan nan nan nan nan nan nan nan nan nan nan nan nan nan nan nan nan nan 216 215 222 225 229 232 236 245 254 257 264 271 268 271 275 279 284 283 285 284 275 275 297 309 307 303 298 291 285 279 276 273 268 261 253 246 245 246 253 255 262 266 259 258 257 258 260 262 262 257 252 250 254 251 244 240 238 238 240 243
nan nan nan nan nan nan nan nan nan nan nan nan nan nan nan nan nan nan nan nan nan nan nan nan nan nan nan 208 224 232 233 233 236 246 257 264 276 276 265 266 274 277 280 276 282 295 283 290 301 301 302 292 289 287 282 280 277 272 266 262 255 249 244 243 243 247 247 256 251 252 254 254 249 257 256 249 248 253 253 250 239 237 237 234 230 nan
nan nan nan nan nan nan nan nan nan nan nan nan nan nan nan nan nan nan nan nan nan nan nan nan nan nan nan nan 219 223 227 232 235 244 251 268 284 280 265 256 258 259 262 269 282 283 286 289 293 294 286 286 285 272 272 273 272 271 271 265 255 251 243 238 238 243 257 270 269 272 271 266 258 257 255 249 250 251 250 246 240 236 232 227 nan nan
nan nan nan nan nan nan nan nan nan nan nan nan nan nan nan nan nan nan nan nan nan nan nan nan nan nan nan nan 222 233 228 239 239 229 236 260 280 285 267 257 254 256 263 267 274 275 280 282 289 291 293 287 279 269 266 268 273 273 269 262 257 251 239 236 241 250 262 269 269 269 265 266 266 264 263 257 248 245 243 243 236 231 228 228 nan nan
nan nan nan nan nan nan nan nan nan nan nan nan nan nan nan nan nan nan nan nan nan nan nan nan nan nan nan nan nan 224 231 248 256 270 324 340 350 336 290 262 262 264 264 264 267 270 278 285 287 285 288 286 282 273 268 265 267 269 268 264 255 248 242 240 245 257 270 275 272 269 269 270 269 266 261 261 255 244 239 234 232 228 233 nan nan nan
nan nan nan nan nan nan nan nan nan nan nan nan nan nan nan nan nan nan nan nan nan nan nan nan nan nan nan nan nan 226 208 226 235 248 349 348 346 348 325 284 255 255 262 264 266 267 273 280 282 281 282 283 282 283 270 267 265 264 269 271 259 246 243 243 256 266 272 273 271 264 267 267 262 255 254 253 244 229 229 227 231 232 nan nan nan nan
nan nan nan nan nan nan nan nan nan nan nan nan nan nan nan nan nan nan nan nan nan nan nan nan nan nan nan nan nan 212 203 245 269 250 355 301 296 303 293 276 252 251 261 261 263 264 267 270 271 279 286 291 276 265 262 265 267 263 263 262 257 246 245 252 269 280 279 276 269 264 263 261 256 250 245 236 231 222 224 226 229 228 nan nan nan nan
nan nan nan nan nan nan nan nan nan nan nan nan nan nan nan nan nan nan nan nan nan nan nan nan nan nan nan nan nan 212 183 188 203 210 224 238 244 248 242 236 235 247 262 261 256 260 262 265 267 270 278 274 251 253 257 261 269 265 261 257 254 248 249 264 281 280 272 266 260 255 254 251 246 241 232 226 227 234 233 224 228 nan nan nan nan nan
nan nan nan nan nan nan nan nan nan nan nan nan nan nan nan nan nan nan nan nan nan nan nan nan nan nan nan nan nan nan 214 207 210 224 242 247 251 259 252 243 230 240 272 269 261 259 259 259 258 253 255 249 239 252 249 266 267 264 260 256 252 253 258 270 279 275 269 263 256 251 245 236 235 229 228 229 227 225 226 228 235 nan nan nan nan nan
nan nan nan nan nan nan nan nan nan nan nan nan nan nan nan nan nan nan nan nan nan nan nan nan nan nan nan nan 203 221 232 219 218 232 247 255 266 270 260 248 229 241 274 277 262 256 262 255 251 248 248 238 239 242 251 260 264 270 266 261 258 259 262 271 275 270 262 259 253 236 229 233 243 245 241 236 231 229 224 227 nan nan nan nan nan nan
nan nan nan nan nan nan nan nan nan nan nan nan nan nan nan nan nan nan nan nan nan nan nan nan nan nan nan nan 206 216 230 226 224 234 251 264 277 283 267 254 236 241 264 271 257 251 251 247 252 244 237 238 242 242 247 255 259 267 268 271 270 269 272 271 271 263 257 251 240 233 236 251 261 247 235 233 235 230 231 229 nan nan nan nan nan nan
nan nan nan nan nan nan nan nan nan nan nan nan nan nan nan nan nan nan nan nan nan nan nan nan nan nan nan 226 221 222 236 230 226 233 255 284 303 294 262 248 231 232 242 253 256 249 239 239 248 248 243 238 239 242 244 249 258 263 264 273 276 276 277 276 265 255 242 242 240 239 249 259 253 238 233 231 232 232 240 246 252 257 nan nan nan nan
nan nan nan nan nan nan nan nan nan nan nan nan nan nan nan nan nan nan nan nan nan nan nan nan nan nan nan nan 245 248 254 252 245 252 277 307 321 298 264 256 246 235 234 240 244 245 237 239 249 252 250 245 244 248 249 252 254 266 266 265 263 265 271 271 264 256 253 244 246 244 243 240 239 238 238 236 243 246 252 259 261 263 nan nan nan nan
nan nan nan nan nan nan nan nan nan nan nan nan nan nan nan nan nan nan nan nan nan nan nan nan nan nan nan nan 256 261 267 267 274 289 281 292 308 290 279 272 256 241 233 239 245 242 232 236 245 245 243 238 236 240 245 250 259 259 259 264 271 278 277 270 258 251 249 246 243 245 242 238 237 239 237 242 247 256 260 261 262 263 nan nan nan nan
nan nan nan nan nan nan nan nan nan nan nan nan nan nan nan nan nan nan nan nan nan nan nan nan nan nan nan nan 243 239 244 267 286 287 278 290 301 292 287 289 265 243 233 239 246 244 234 235 244 244 241 240 241 244 250 249 253 258 260 263 266 272 273 266 253 251 249 244 241 238 235 234 233 236 238 247 254 259 262 263 265 268 nan nan nan nan
nan nan nan nan nan nan nan nan nan nan nan nan nan nan nan nan nan nan nan nan nan nan nan nan nan nan nan 205 205 218 231 232 240 242 251 286 300 280 287 293 266 241 237 237 241 245 242 241 244 248 251 249 248 245 249 248 253 257 260 264 268 272 267 257 248 245 247 247 245 240 235 235 234 235 240 252 257 261 261 262 263 nan nan nan nan nan
nan nan nan nan nan nan nan nan nan nan nan nan nan nan nan nan nan nan nan nan nan nan nan nan nan nan nan 201 204 209 203 197 194 201 225 245 243 236 251 283 278 248 232 233 236 238 240 241 242 246 249 246 244 245 250 249 248 255 259 264 267 270 266 254 247 246 249 251 251 249 246 241 237 237 241 249 253 258 257 260 260 nan nan nan nan nan
nan nan nan nan nan nan nan nan nan nan nan nan nan nan nan nan nan nan nan nan nan nan nan nan nan nan nan nan 209 210 211 215 215 216 224 227 220 209 219 256 277 276 252 242 242 244 242 242 247 248 249 245 245 246 247 252 252 257 260 263 265 263 261 256 250 251 253 260 262 258 256 251 245 245 245 247 nan nan nan 261 nan nan nan nan nan nan
nan nan nan nan nan nan nan nan nan nan nan nan nan nan nan nan nan nan nan nan nan nan nan nan nan nan 198 nan 210 214 221 218 216 221 225 227 219 216 230 258 278 282 263 248 245 249 250 243 237 241 247 242 244 249 251 252 253 255 258 260 262 265 261 258 254 257 261 265 268 266 264 nan nan nan nan nan nan nan nan nan nan nan nan nan nan nan
nan nan nan nan nan nan nan nan nan nan nan nan nan nan nan nan nan nan nan nan nan nan nan nan nan 216 213 214 215 219 228 234 235 238 244 238 232 239 251 262 274 273 256 244 241 245 244 242 245 247 251 249 249 251 251 255 255 256 258 260 259 262 263 261 261 264 267 268 nan nan nan nan nan nan nan nan nan nan nan nan nan nan nan nan nan nan
nan nan nan nan nan nan nan nan nan nan nan nan nan nan nan nan nan nan nan nan nan nan nan nan 223 232 220 221 219 223 228 228 227 239 246 247 251 256 262 268 272 265 245 236 241 253 259 256 247 247 254 255 252 253 254 252 254 259 263 263 262 262 260 257 262 266 268 270 nan nan nan nan nan nan nan nan nan nan nan nan nan nan nan nan nan nan
nan nan nan nan nan nan nan nan nan nan nan nan nan nan nan nan nan nan nan nan nan nan nan nan 234 233 230 236 241 244 244 244 249 256 259 260 261 262 267 274 274 261 244 243 250 254 255 254 247 247 254 258 259 261 262 257 255 258 260 263 265 264 263 263 266 267 268 nan nan nan nan nan nan nan nan nan nan nan nan nan nan nan nan nan nan nan
nan nan nan nan nan nan nan nan nan nan nan nan nan nan nan nan nan nan nan nan nan nan nan 229 237 227 224 229 230 229 228 235 239 238 242 252 263 267 268 274 276 262 251 251 254 256 255 252 248 246 252 261 266 264 261 260 260 261 265 263 262 262 261 263 265 268 nan nan nan nan nan nan nan nan nan nan nan nan nan nan nan nan nan nan nan nan
nan nan nan nan nan nan nan nan nan nan nan nan nan nan nan nan nan nan nan nan nan nan nan 221 223 217 217 224 229 226 236 236 235 240 247 251 254 258 260 262 264 264 257 252 248 249 249 248 250 251 259 268 269 265 260 259 260 260 260 261 263 263 262 261 264 nan nan nan nan nan nan nan nan nan nan nan nan nan nan nan nan nan nan nan nan nan
nan nan nan nan nan nan nan nan nan nan nan nan nan nan nan nan nan nan nan nan nan nan 223 224 220 215 218 227 230 233 238 244 246 243 242 241 243 247 244 238 245 263 267 259 252 250 251 253 260 265 267 268 265 263 261 260 260 261 262 261 263 263 261 261 263 264 nan nan nan nan nan nan nan nan nan nan nan nan nan nan nan nan nan nan nan nan
nan nan nan nan nan nan nan nan nan nan nan nan nan nan nan nan nan nan nan nan nan 227 227 229 221 222 228 228 233 228 236 234 235 245 253 253 255 251 248 247 260 271 267 261 262 266 264 263 262 259 255 253 256 258 259 260 260 259 260 263 263 263 263 263 263 264 nan nan nan nan nan nan nan nan nan 264 264 263 266 nan nan nan nan nan nan nan
nan nan nan nan nan nan nan nan nan nan nan nan nan nan nan nan nan nan nan nan nan nan nan nan nan 234 235 228 236 226 229 242 251 239 254 277 268 254 247 246 257 266 257 251 253 252 246 244 243 246 249 249 251 254 258 261 265 263 261 261 262 265 264 265 265 267 nan nan nan nan nan nan nan nan 264 264 264 264 nan nan nan nan nan nan nan nan
nan nan nan nan nan nan nan nan nan nan nan nan nan nan nan nan nan nan nan nan 216 nan nan 232 234 240 244 249 243 235 228 218 213 214 215 229 257 268 267 251 248 258 261 253 248 248 256 259 258 257 255 253 254 251 253 254 256 259 260 262 265 264 265 266 268 269 269 nan nan nan nan nan nan nan nan nan nan nan nan nan nan nan nan nan nan nan
nan nan nan nan nan nan nan nan nan nan nan nan nan nan nan nan nan nan nan nan nan nan nan 225 233 238 237 231 227 229 233 230 224 218 217 222 235 250 255 247 251 256 267 276 285 278 271 271 275 274 265 253 255 255 258 261 260 261 261 260 262 263 264 266 268 269 nan nan nan nan nan nan nan nan nan nan nan nan nan nan nan nan nan nan nan nan
nan nan nan nan nan nan nan nan nan nan nan nan nan nan nan nan nan nan nan nan nan nan nan 220 220 228 234 234 238 241 244 239 234 229 233 243 237 233 253 258 264 273 280 279 281 273 260 253 255 258 256 256 256 259 260 260 259 262 263 263 263 263 263 265 267 269 271 271 nan nan nan 272 nan nan nan nan nan nan nan nan nan nan nan nan nan nan
nan nan nan nan nan nan nan nan nan nan nan nan nan nan nan nan nan nan nan nan nan nan nan 226 229 233 237 242 244 245 245 245 241 241 248 252 252 250 243 243 245 250 257 259 252 254 255 251 251 258 263 263 262 257 256 261 264 265 265 264 265 266 267 267 269 269 269 nan 270 270 nan 270 nan nan nan nan nan nan nan nan nan nan nan nan nan nan
nan nan nan nan nan nan nan nan nan nan nan nan nan nan nan nan nan nan nan nan nan 222 nan 228 231 235 244 248 250 249 246 245 244 246 253 256 261 267 269 263 260 256 256 260 263 261 255 253 260 261 257 255 263 263 260 261 265 266 266 266 268 268 271 272 270 272 276 275 274 274 272 nan nan nan nan nan nan nan nan nan nan nan nan nan nan nan
nan nan nan nan nan nan nan nan nan nan nan nan nan nan nan nan nan nan nan nan nan 211 nan 228 237 239 240 247 252 257 259 252 249 250 263 264 263 263 269 262 253 242 234 229 227 239 247 249 255 258 261 266 268 264 266 264 263 265 266 267 268 272 274 275 277 nan 273 273 277 nan nan nan nan nan nan nan nan nan nan nan nan nan nan nan nan nan
nan nan nan nan nan nan nan nan nan nan nan nan nan nan nan nan nan nan nan 215 214 212 218 229 233 237 244 252 254 254 260 255 249 243 256 256 255 255 249 243 238 237 240 242 248 251 254 258 264 268 267 261 261 260 262 263 263 264 265 267 270 275 273 272 271 270 273 nan nan nan nan nan nan nan nan nan nan nan nan nan nan nan nan nan nan nan
nan nan nan nan nan nan nan nan nan nan nan 193 nan nan nan nan nan nan 214 220 220 216 218 230 238 240 246 255 258 253 244 241 246 256 268 271 266 251 245 242 239 239 246 257 267 269 265 262 255 252 251 254 263 263 262 264 264 263 265 267 271 268 266 270 271 273 277 nan nan nan nan nan nan nan nan nan nan nan nan nan nan nan nan nan nan nan
nan nan nan nan nan nan nan nan nan nan nan 208 nan nan nan nan nan 210 217 220 226 224 226 231 241 241 245 248 245 239 238 244 250 258 267 268 266 266 261 256 256 259 261 262 267 272 272 262 256 254 254 253 257 258 257 261 263 262 263 266 265 263 267 271 nan nan nan 280 nan nan nan nan nan nan nan nan nan nan nan nan nan nan nan nan nan nan
nan nan nan nan nan nan nan nan nan nan 216 215 nan nan 209 214 213 219 221 216 218 225 227 232 236 241 244 246 249 242 240 244 246 253 260 262 261 260 257 255 254 256 259 263 268 265 262 260 257 255 252 254 257 259 261 264 263 262 264 265 261 263 266 270 nan nan 278 nan nan nan nan nan nan nan nan nan nan nan nan nan nan nan nan nan nan nan
nan nan nan nan nan nan nan nan 211 217 223 219 230 231 226 221 225 230 225 224 225 222 228 230 236 237 241 243 241 242 239 239 247 257 265 270 270 272 275 276 274 270 265 265 266 263 258 258 258 256 256 255 260 261 266 268 272 269 269 263 264 268 270 nan nan nan nan nan nan nan nan nan nan nan nan nan nan nan nan nan nan nan nan nan nan nan
nan nan nan nan nan 216 217 219 220 222 224 220 224 229 233 232 232 238 237 231 226 227 230 230 233 241 241 240 243 237 239 243 247 251 252 256 262 262 263 266 268 268 266 264 264 265 258 253 255 259 262 257 258 258 258 259 264 273 267 264 266 268 270 272 274 275 275 nan nan nan nan nan nan nan nan nan nan nan nan nan nan nan nan nan nan nan
nan nan nan nan nan nan 227 222 225 225 222 221 221 228 234 238 240 243 244 239 233 229 227 225 233 239 243 247 250 247 244 248 251 251 250 254 260 267 272 272 272 274 274 271 266 264 260 258 255 257 260 261 256 256 256 258 259 260 260 265 265 267 269 272 273 nan nan nan nan nan nan nan nan nan nan nan nan nan nan nan nan nan nan nan nan nan
nan nan nan nan nan nan 227 227 225 222 224 223 229 233 235 233 235 236 236 237 237 234 232 229 228 231 242 246 248 249 249 252 258 259 259 259 261 262 263 264 265 261 260 260 262 264 261 260 257 255 255 256 256 256 258 259 260 261 264 264 266 267 nan nan 271 nan nan nan nan nan nan nan nan nan nan nan nan nan nan nan nan nan nan nan nan nan
nan nan nan nan nan nan nan 226 nan 226 228 229 227 228 227 227 227 230 234 236 235 235 233 231 233 235 241 239 240 244 248 254 260 266 264 255 250 251 257 259 259 259 259 261 262 262 262 258 256 254 252 251 251 253 255 256 256 260 264 264 265 269 nan 269 266 nan nan nan nan nan nan nan nan nan nan nan nan nan nan nan nan nan nan nan nan nan
nan 208 nan nan nan nan nan nan nan nan nan nan 220 220 217 222 228 230 231 231 231 233 233 235 231 233 240 243 248 252 255 253 249 248 255 254 254 252 249 250 251 254 253 253 254 253 252 254 256 254 250 249 251 252 253 253 254 255 258 260 263 268 269 264 nan nan nan nan nan nan nan nan nan nan nan nan nan nan nan nan nan nan nan nan nan nan
nan nan nan nan nan nan nan 213 nan 221 nan nan 216 213 216 220 230 233 231 231 229 230 nan 241 238 235 236 236 243 251 248 251 249 245 243 239 238 237 237 244 251 254 257 258 259 256 255 253 252 252 251 248 248 250 252 253 255 258 258 259 262 nan nan nan nan nan 253 251 nan nan nan nan nan nan nan nan nan nan nan nan nan nan nan nan nan nan